Location: Kaumingi
(40.9833°S, 175.9000°E)
Time: 21:44:18
(UTC+00:00)

Daily predictions for brighter satellites

Satellite Brightness Start Highest point End
(mag) Time Altitude Azimuth Time Altitude Azimuth Time Altitude Azimuth
USA 59 Rocket 2.5 15:57:47 39° NE 15:57:47 39° NE 16:01:40 10° NE
Atlas Centaur 2 4.0 16:32:34 21° NNE 16:32:34 21° NNE 16:35:03 10° ENE
Cosmos 1656 4.4 16:54:17 43° SSE 16:55:17 48° ESE 17:00:36 10° NE
Meteor 2-21 Rocket 4.4 16:52:25 10° N 16:58:36 85° E 17:04:55 10° S
Cosmos 2034 Rocket 4.4 16:56:53 14° S 17:02:14 60° E 17:08:19 10° NNE
Lacrosse 5 rocket 3.8 17:09:56 12° NNE 17:09:56 12° NNE 17:10:15 10° NNE
SMAP 4.1 17:12:29 10° NE 17:16:56 45° ESE 17:19:58 19° S
Cosmos 1607 3.7 17:19:33 61° WNW 17:20:33 75° WSW 17:26:40 10° SSE
Cosmos 1302 Rocket 3.9 17:23:29 70° WNW 17:23:29 70° WNW 17:28:28 10° N
Spot 4 Rocket 3.9 17:21:12 10° NNE 17:26:21 88° WNW 17:28:08 43° SSW
Cosmos 1766 Rocket 3.4 17:35:02 73° WNW 17:35:02 73° WNW 17:39:19 10° N
Cosmos 1536 4.2 17:34:06 12° SSE 17:37:22 36° ESE 17:40:57 10° NE
Cosmos 1464 Rocket 4.2 17:38:31 39° SW 17:40:11 47° W 17:46:15 10° NNW
USA 59 Rocket 2.3 17:44:22 27° WNW 17:44:22 27° WNW 17:49:13 10° NNW
USA 215 3.2 17:38:04 10° NE 17:44:38 84° NW 17:48:09 31° SW
SJ-7 4.2 17:43:03 10° NNE 17:47:07 84° WNW 17:48:36 39° SSW
Cosmos 1697 Rocket 3.4 17:43:05 14° SSW 17:47:58 52° ESE 17:53:31 10° NE
Cosmos 614 Rocket 4.3 17:49:38 40° SW 17:49:38 40° SW 17:54:05 10° S
Tsikada Rocket 3.9 17:45:51 10° NNW 17:52:04 73° W 17:58:20 10° S
Cosmos 44 Rocket 4.2 17:54:21 30° WNW 17:54:21 30° WNW 17:58:38 10° N
Cosmos 1340 Rocket 3.0 17:54:28 10° N 17:58:20 71° E 18:02:21 10° SSE
NOSS 3-4 (C) 3.6 17:55:52 20° SSW 18:01:01 85° ESE 18:07:04 10° NE
SL-4 R/B 3.3 18:00:57 25° SSW 18:01:03 26° SSW 18:04:34 10° SE
NOSS 3-4 (A) 3.5 17:56:03 20° SSW 18:01:09 86° SE 18:07:09 10° NE
Aureole 3 Rocket 2.9 18:01:35 44° W 18:01:40 44° W 18:04:54 10° NNW
Cosmos 1733 4.4 17:59:03 10° S 18:02:28 39° ESE 18:05:50 10° NNE
Cosmos 1140 Rocket 4.3 17:57:35 10° N 18:02:35 53° ENE 18:07:40 10° SSE
Cosmos 1269 Rocket 4.0 18:00:07 10° NNW 18:05:23 63° WSW 18:10:42 10° SSE
JB-3 4.2 18:02:27 10° S 18:06:24 83° WSW 18:10:21 10° NNW
Cosmos 1634 Rocket 4.0 18:00:05 10° S 18:06:31 84° W 18:12:53 10° N
Cosmos 1980 Rocket 3.5 18:03:31 10° S 18:08:46 37° ESE 18:13:58 10° NE
Meteor 1-10 Rocket 4.3 18:03:27 10° NNW 18:09:24 75° W 18:15:26 10° S
Tiangong -1.2 18:09:42 33° NW 18:10:20 37° NNW 18:13:18 10° NE
AQUARIUS 4.1 18:07:00 10° N 18:11:27 68° WNW 18:15:58 10° SSW
Sich 1 3.7 18:11:22 10° S 18:15:40 57° E 18:19:56 10° NNE
Cosmos 1833 Rocket 2.8 18:10:50 10° NW 18:16:19 51° WSW 18:21:53 10° SSE
Cosmos 1726 3.0 18:18:04 24° WNW 18:18:04 24° WNW 18:19:59 10° NNW
Helios 1B rocket 2.6 18:13:56 10° NNE 18:17:52 71° ESE 18:21:51 10° S
Atlas Centaur 2 3.5 18:14:48 11° WNW 18:18:48 23° N 18:22:23 10° NE
Genesis I 3.2 18:18:03 21° WNW 18:20:07 44° SW 18:23:34 10° SSE
Cosmos 1500 Rocket 3.7 18:16:28 10° S 18:20:58 79° E 18:25:21 10° N
Meteor 1-11 Rocket 3.6 18:21:13 10° SSW 18:26:49 71° W 18:32:19 10° N
Meteor 1-31 Rocket 2.7 18:26:25 10° N 18:30:10 63° WNW 18:34:01 10° SSW
YAOGAN 1 4.0 18:26:41 10° NE 18:30:42 38° ESE 18:34:46 10° S
Cosmos 2251 Rocket 4.3 18:25:54 10° N 18:31:04 55° ENE 18:36:16 10° SSE
Meteor 2-9 Rocket 4.1 18:28:20 10° SSW 18:33:50 79° W 18:39:27 10° N
COSMOS 2406 4.1 18:30:49 10° N 18:36:19 53° ENE 18:41:54 10° SSE
CZ-4 R/B 4.1 18:35:24 10° E 18:37:22 14° ESE 18:39:21 10° SE
Cosmos 1805 Rocket 3.5 18:34:25 10° S 18:38:49 80° W 18:43:10 10° N
Meteor 1-27 Rocket 3.8 18:35:09 10° NNW 18:40:55 64° W 18:46:38 10° S
ADEOS Rocket 2.8 18:35:58 10° N 18:41:38 81° WNW 18:47:13 10° SSW
USA 32 4.3 18:37:34 10° NNW 18:42:35 46° W 18:47:42 10° S
Meteor 2-10 4.3 18:40:40 10° SSW 18:46:19 59° W 18:51:57 10° N
Centaur D-1A AC-31 3.9 18:42:11 10° NW 18:46:45 26° N 19:00:54 10° ENE
COSMO-SKYMED 1 2.8 18:47:49 10° S 18:52:06 51° WSW 18:56:20 10° NNW
Cosmos 1626 2.4 18:48:59 10° N 18:52:09 60° E 18:55:24 10° SSE
Cosmos 1805 3.1 18:51:05 10° S 18:54:52 86° W 18:58:36 10° N
Helios 1A 3.6 18:52:37 10° SSE 18:56:43 60° ENE 19:00:45 10° N
CZ-2C R/B 3.8 18:54:32 10° NNW 18:57:43 26° W 19:00:57 10° SW
Nadezhda 4 Rocket 4.0 18:52:45 10° N 18:58:55 89° W 19:05:09 10° S
Cosmos 2279 Rocket 4.3 18:57:49 10° SSW 19:03:44 45° W 19:09:34 10° NNW
SAR-Lupe-2 3.7 19:00:18 10° N 19:03:51 57° W 19:07:27 10° SSW
Cosmos 1340 4.1 19:03:45 10° SW 19:05:58 16° W 19:08:10 10° NW
SJ-6B 4.2 19:06:27 10° NE 19:10:12 40° ESE 19:13:57 10° S
IGS 5A 4.2 19:08:14 10° NNW 19:11:59 34° W 19:15:47 10° SSW
CZ-4B R/B 4.0 19:08:46 10° NE 19:12:04 39° ESE 19:15:24 10° S
Cosmos 540 Rocket 4.5 19:08:42 10° S 19:13:42 47° ESE 19:18:39 10° NE
Okean O Rocket 4.2 19:11:29 10° ENE 19:14:17 17° ESE 19:17:08 10° SSE
Exosat Rocket 4.2 19:10:10 10° NNW 19:15:49 70° WSW 19:23:42 10° SSE
ADEOS 3.8 19:10:54 10° NNE 19:16:08 80° ESE 19:21:27 10° SSW
CZ-3 R/B 3.2 19:10:22 10° WNW 19:16:35 22° N 19:20:03 10° NE
